Regional Weather Roundup
Issued by NWS San Diego, CA

Home | Current Version | Previous Version | Text Only | Print | Product List | Glossary On
Versions: 1 2 3 4 5 6 7 8 9 10 11 12 13 14 15 16 17 18 19 20 21 22 23 24 25 26 27 28 29 30 31 32 33 34 35 36 37 38 39 40 41 42 43 44 45 46 47 48 49 50
000
ASUS46 KSGX 180111
RWRSGX

SAN DIEGO HOURLY WEATHER ROUNDUP
NATIONAL WEATHER SERVICE SAN DIEGO CA
600 PM PDT THU AUG 17 2017

NOTE: "FAIR" INDICATES FEW OR NO CLOUDS BELOW 12,000 FEET WITH NO
SIGNIFICANT WEATHER AND/OR OBSTRUCTIONS TO VISIBILITY.

CAZ042-043-060-061-PZZ750-775-180200-

GREATER SAN DIEGO AREA

CITY           SKY/WX    TMP DP  RH WIND       PRES   REMARKS
SAN DIEGO AP   MOSUNNY   74  61  63 W10       29.98S
NATIONAL CITY    N/A     73  64  73 NW3       29.98F
IMPERIAL BEACH MOSUNNY   72  62  71 W12       29.97F
BROWN FIELD    SUNNY     73  61  65 NW7       29.97S
MIRAMAR MCAS   SUNNY     75  59  57 W9        29.96F
MONTGOMERY FLD SUNNY     75  59  57 W9        29.96F
GILLESPIE FLD  SUNNY     79  57  47 NW12      29.96S

$$

NORTH SAN DIEGO COUNTY

CITY           SKY/WX    TMP DP  RH WIND       PRES   REMARKS
CAMP PENDLETON SUNNY     63  59  87 SW7       29.94S
OCEANSIDE AP   SUNNY     72  63  73 W8        29.95S
OCEANSIDE HBR    N/A     69  63  81 NW7       29.98S
VISTA            N/A     74  63  69 W2        29.93S
CARLSBAD       SUNNY     70  62  76 W6        29.96S
DEL MAR          N/A     71  63  74 W2        29.98S
LA JOLLA SCRIP   N/A     70  64  80 SW3       29.96S
FALLBROOK        N/A     77  61  58 S3        29.95S
ESCONDIDO        N/A     77  61  57 SW5       29.96S
POWAY            N/A     78  60  53 SW5       29.96S

$$

EAST SAN DIEGO COUNTY

CITY           SKY/WX    TMP DP  RH WIND       PRES   REMARKS
RAMONA         SUNNY     78  56  46 W10       29.97F
SANTEE LAKES     N/A     78  58  50 CALM      29.94R
LA MESA          N/A     76  60  57 W3        29.89R
JAMUL            N/A     77  59  54 CALM      29.95S
DESCANSO N       N/A     74  54  49 W3        29.87S
CAMPO            N/A     79  56  45 SW14      29.97S

$$

ORANGE COUNTY AND THE LOS ANGELES BASIN

CITY           SKY/WX    TMP DP  RH WIND       PRES   REMARKS
JOHN WAYNE AP  SUNNY     74  60  61 W7        29.95S
LAKE FOREST FR   N/A     80  58  46 W3        29.84S
HUNTINGTON BCH   N/A     73  66  78 W8        29.96S
LOS ALAMITOS   SUNNY     76  61  58 S7        29.94S
FULLERTON      SUNNY     79  60  52 SW7       29.93S
LONG BEACH     SUNNY     76  61  59 NW9       29.94S
L.A. AP        MOSUNNY   71  63  75 W15       29.96S
L.A. DOWNTOWN  SUNNY     75  62  64 W7        29.95S

$$

THE INLAND EMPIRE

CITY           SKY/WX    TMP DP  RH WIND       PRES   REMARKS
CORONA         SUNNY     81  58  45 NW15      29.93S
CHINO          SUNNY     84  47  27 SW16      29.95R
ONTARIO        MOSUNNY   83  53  35 W10G21    29.94S
SAN BERNARDINO SUNNY     86  48  26 SW17      29.94S
RIVERSIDE AP   SUNNY     81  50  33 W16G22    29.93S
MORENO VALLEY    N/A     85  57  38 W3        28.06R
MARCH ARB      SUNNY     82  52  35 NW14      29.96R
HORSETHIEF CYN   N/A     84  48  29 E9        29.92S
PERRIS           N/A     84  57  39 W8        29.94R
HEMET EAST       N/A     85  47  26 SW5       29.96R
FRENCH VALLEY  FAIR      81  43  26 SW13      29.96S
TEMECULA         N/A     82  52  35 SW7       29.97S

$$

SAN BERNARDINO AND RIVERSIDE COUNTY MOUNTAINS

CITY           SKY/WX    TMP DP  RH WIND       PRES   REMARKS
BIG BEAR AP    SUNNY     72  36  26 NE10      30.24S
PINE COVE        N/A     69  51  53 W3        29.90S

$$

SOUTHERN DESERT INCLUDING THE COACHELLA VALLEY

CITY           SKY/WX    TMP DP  RH WIND       PRES   REMARKS
PALM SPRINGS   SUNNY    104  44  13 NW16G23   29.81S HX  99
THOUSAND PALMS   N/A    103  46  14 SE5       29.76F HX  99
PALM DESERT      N/A    103  49  16 CALM        N/A  HX 100
THERMAL        SUNNY    103  43  13 E9        29.74F HX  98
BLYTHE         SUNNY    105  39  10 VRB6      29.78S HX  99
IMPERIAL AP    SUNNY    102  51  18 NW5       29.75F HX  99
EL CENTRO NAS  MOSUNNY  103  43  13 NW3       29.77F HX  98
YUMA AZ        SUNNY    102  47  15 S5        29.77F HX  98
MEXICALI       SUNNY    102  41  12 CALM      29.77F HX  97

$$

UPPER DESERT

CITY           SKY/WX    TMP DP  RH WIND       PRES   REMARKS
VICTORVILLE AP SUNNY     93  41  16 S3        29.96R
HESPERIA         N/A     85  53  32 S13       29.93F
PALMDALE       SUNNY     90  50  25 SW21      29.95S
LANCASTER      SUNNY     90  53  28 SW21      29.93S
EDWARDS AFB    MOSUNNY   98  35  11 CALM      29.90S
DAGGETT        SUNNY     99  41  13 NE10      29.87F
29 PALMS N     SUNNY     97  32  10 E9        29.97S
NEEDLES        SUNNY    106  30   7 W5        29.82F HX  99

$$

REGIONAL REPORTS

CITY           SKY/WX    TMP DP  RH WIND       PRES   REMARKS
SANTA BARBARA  SUNNY     69  60  73 W12       29.96S
SANDBERG       SUNNY     80  52  37 S8        30.13S
LAS VEGAS NV   MOSUNNY  100  40  12 NE9       29.91S HX  95
PHOENIX AZ     MOSUNNY  102  32   8 VRB5      29.83F HX  95
TIJUANA        SUNNY     72  61  68 W8        29.99S
ENSENADA NW      N/A     70  32  24 NW14      29.94S

$$

OFFSHORE ISLANDS

CITY           SKY/WX    TMP DP  RH WIND       PRES   REMARKS
CATALINA ARPT  SUNNY     65  59  81 SW9       30.00S
SAN CLEMENTE I PTSUNNY   66  58  75 W13       29.99F
SAN NICOLAS IS SUNNY    N/A N/A N/A W16       29.98S

$$

MARINE AND OFFSHORE BUOY REPORTS

STATION/POSITION SKY/WX   TEMP    WIND        PRES    VSBY  SWELL
                          AIR SEA DIR/SP/G                  HT/PER/DIR
                          (F)     (DEG/KT/KT) (MB)    (MI)  (FT/S/D)
TANNER BANKS               64 66  300/ 12/ 16 1015.0F         5/200/16
S CLEMENTE BASIN           66 69  300/ 14/ 16 1014.7F         3/220/14
SAN NICOLAS IS.               63                N/A           3/150/15
SO. S. ROSA ISLA           63 64  290/ 14/ 16 1015.0F         5/190/16
W. S. BARBARA CH           62 61  290/ 14/ 16 1014.9F         3/280/10
M. S. BARBARA CH           63 67  260/ 14/ 16 1015.5F         2/250/10
S. MONICA BASIN               72  270/ 10/ 12 1014.3F         3/190/16
S PEDRO CHANNEL               71                N/A           2/160/15
CMP PENDLETON NS              70                N/A           2/210/17
OCEANSIDE OFFSHR              70                N/A           2/180/15
TORREY PINES OTR              70                N/A           2/190/17
SAN DIEGO BAY                 74              1015.0F
POINT LOMA SOUTH              73                N/A           3/180/15

$$




USA.gov is the U.S. government's official web portal to all federal, state and local government web resources and services.